User: anonymous   Login
Location: Columbia
(38.9520°N, 92.3340°W)
Time: 19:38:30
(UTC-06:00)
Language:

Cosmos 158 Rocket - Orbit

View from above orbital plane
View from above orbital plane
View from above satellite
View from above satellite

Ground track
Ground track

The orbit data is extracted from the following two-line orbital elements,

1 02802U 67045B   17021.72050891  .00000032  00000-0  17165-4 0  9996
2 02802  74.0117  79.3440 0066355 170.1999 190.0471 14.43615026607841
Epoch (UTC): 21 January 2017 17:17:31
Eccentricity: 0.0066355
inclination: 74.0117°
perigee height: 699 km
apogee height: 794 km
right ascension of ascending node: 79.3440°
argument of perigee: 170.1999°
revolutions per day: 14.43615026
mean anomaly at epoch: 190.0471°
orbit number at epoch: 60784

The dashed part of the orbit path shows where the satellite is in the earth's shadow,  

DLR